sat.trackr.live / text

‹ back to catalog

STARLINK-37399

NORAD 68772 · 2026-086G

PAYLOAD ACTIVE UNKNOWN

§ Identity

Operator
Country
US
Launch date
2026-04-19
Launch site
AFWTR
Launch vehicle
Mass (kg)
RCS (m²)

Purposes: comms

External: N2YO · Heavens-Above · Gunter

§ Orbital elements

Epoch: 2026-09-18T08:26:19.704480Z

Period
93.91 min
Inclination
97.2842°
Eccentricity
0.0003006
Mean motion
15.33440482 rev/d
Perigee alt
463.5 km
Apogee alt
467.6 km
Semi-major
6,843.7 km
B*
3.1407e-4
RAAN
296.7769°
Arg perigee
98.9519°
Mean anomaly
261.2065°
Rev number
2,335

§ Raw data

STARLINK-373991 68772U 26086G   26261.35161695  .00010077  00000+0  31407-3 0  99972 68772  97.2842 296.7769 0003006  98.9519 261.2065 15.33440482 23359

JSON: /api/v1/satellites/68772 · /tle

For live sub-satellite position, see the globe view (requires WebGL).

§ Visibility from observer

Set your observer location to see the next 7 days of passes ≥ 10°. The values pass through the URL so the page stays shareable.

No JS? Fill the form by hand. The geolocation button needs JavaScript.